Hourly Weather Holmovka

Today, 13 April, Tuesday

Time Temperature Precipitation Wind Pressure Humidity
00:00 +8°C° 0 mm 2 mps 749 mmHg 85%
01:00 +7°C° 0 mm 2 mps 749 mmHg 90%
02:00 +6°C° 0 mm 2 mps 749 mmHg 94%
03:00 +6°C° 0 mm 2 mps 749 mmHg 92%
04:00 +6°C° 0 mm 2 mps 749 mmHg 90%
05:00 +7°C° 0 mm 1 mps 748 mmHg 89%
06:00 +9°C° 0 mm 1 mps 748 mmHg 82%
07:00 +9°C° 0 mm 2 mps 748 mmHg 76%
08:00 +11°C° 0 mm 1 mps 749 mmHg 69%
09:00 +13°C° 0 mm 1 mps 748 mmHg 62%
10:00 +14°C° 0 mm 1 mps 748 mmHg 55%
11:00 +16°C° 0 mm 1 mps 748 mmHg 48%
12:00 +16°C° 0 mm 2 mps 748 mmHg 52%
13:00 +15°C° 0 mm 2 mps 748 mmHg 56%
14:00 +15°C° 0 mm 2 mps 747 mmHg 60%
15:00 +14°C° 0.1 mm 2 mps 747 mmHg 69%
16:00 +13°C° 0.1 mm 2 mps 747 mmHg 77%
17:00 +12°C° 0.1 mm 2 mps 747 mmHg 86%
18:00 +12°C° 0.2 mm 2 mps 746 mmHg 86%
19:00 +12°C° 0.2 mm 2 mps 746 mmHg 90%
20:00 +11°C° 0.2 mm 1 mps 746 mmHg 94%
21:00 +11°C° 0.7 mm 1 mps 746 mmHg 95%
22:00 +11°C° 0.7 mm 1 mps 746 mmHg 95%
23:00 +9°C° 0.7 mm 2 mps 746 mmHg 95%

Tomorrow, 14 April, Wednesday

Time Temperature Precipitation Wind Pressure Humidity
00:00 +9°C° 1 mm 2 mps 745 mmHg 96%
01:00 +8°C° 1 mm 2 mps 745 mmHg 96%
02:00 +8°C° 1 mm 2 mps 745 mmHg 96%
03:00 +8°C° 0.8 mm 2 mps 745 mmHg 96%
04:00 +7°C° 0.8 mm 2 mps 745 mmHg 96%
05:00 +7°C° 0.8 mm 2 mps 745 mmHg 96%
06:00 +7°C° 0.5 mm 2 mps 745 mmHg 95%
07:00 +7°C° 0.5 mm 2 mps 745 mmHg 95%
08:00 +6°C° 0.5 mm 2 mps 746 mmHg 95%
09:00 +7°C° 0.3 mm 2 mps 746 mmHg 94%
10:00 +7°C° 0.3 mm 2 mps 746 mmHg 94%
11:00 +7°C° 0.3 mm 3 mps 746 mmHg 93%
12:00 +7°C° 0.1 mm 3 mps 746 mmHg 91%
13:00 +8°C° 0.1 mm 3 mps 746 mmHg 90%
14:00 +8°C° 0.1 mm 3 mps 745 mmHg 89%
15:00 +8°C° 0.1 mm 3 mps 745 mmHg 89%
16:00 +8°C° 0.1 mm 3 mps 745 mmHg 90%
17:00 +7°C° 0.1 mm 3 mps 745 mmHg 90%
18:00 +7°C° 0.2 mm 3 mps 745 mmHg 91%
19:00 +5°C° 0.2 mm 4 mps 745 mmHg 92%
20:00 +5°C° 0.2 mm 4 mps 746 mmHg 93%
21:00 +5°C° 0.1 mm 3 mps 746 mmHg 94%
22:00 +4°C° 0.1 mm 3 mps 746 mmHg 95%
23:00 +4°C° 0.1 mm 3 mps 746 mmHg 95%

Day after tomorrow, 15 April, Thursday

Time Temperature Precipitation Wind Pressure Humidity
00:00 +4°C° 0 mm 3 mps 746 mmHg 95%
01:00 +4°C° 0 mm 3 mps 745 mmHg 96%
02:00 +4°C° 0 mm 3 mps 745 mmHg 96%
03:00 +4°C° 0 mm 3 mps 745 mmHg 96%
04:00 +4°C° 0 mm 3 mps 745 mmHg 96%
05:00 +4°C° 0 mm 3 mps 745 mmHg 96%
06:00 +4°C° 0 mm 3 mps 746 mmHg 96%
07:00 +5°C° 0 mm 3 mps 746 mmHg 95%
08:00 +5°C° 0 mm 3 mps 746 mmHg 94%
09:00 +5°C° 0 mm 3 mps 746 mmHg 92%
10:00 +5°C° 0 mm 3 mps 746 mmHg 90%
11:00 +7°C° 0 mm 3 mps 746 mmHg 88%
12:00 +7°C° 0 mm 3 mps 746 mmHg 87%
13:00 +7°C° 0 mm 3 mps 746 mmHg 86%
14:00 +8°C° 0 mm 3 mps 746 mmHg 84%
15:00 +8°C° 0 mm 3 mps 746 mmHg 86%
16:00 +7°C° 0 mm 3 mps 745 mmHg 88%
17:00 +7°C° 0 mm 3 mps 745 mmHg 89%
18:00 +7°C° 0.1 mm 3 mps 745 mmHg 92%
19:00 +7°C° 0.1 mm 3 mps 745 mmHg 94%
20:00 +5°C° 0.1 mm 3 mps 745 mmHg 96%
21:00 +7°C° 0.5 mm 3 mps 745 mmHg 96%
22:00 +8°C° 0.5 mm 3 mps 745 mmHg 96%
23:00 +8°C° 0.5 mm 3 mps 745 mmHg 97%

16 April, Friday

Time Temperature Precipitation Wind Pressure Humidity
00:00 +7°C° 0.4 mm 4 mps 745 mmHg 96%
01:00 +7°C° 0.4 mm 4 mps 745 mmHg 95%
02:00 +8°C° 0.4 mm 5 mps 745 mmHg 94%
03:00 +7°C° 0.1 mm 5 mps 745 mmHg 94%
04:00 +7°C° 0.1 mm 5 mps 745 mmHg 93%
05:00 +7°C° 0.1 mm 5 mps 745 mmHg 93%
06:00 +7°C° 0 mm 5 mps 745 mmHg 92%
07:00 +7°C° 0 mm 5 mps 746 mmHg 91%
08:00 +7°C° 0 mm 5 mps 746 mmHg 90%
09:00 +8°C° 0 mm 5 mps 746 mmHg 88%
10:00 +8°C° 0 mm 5 mps 746 mmHg 85%
11:00 +9°C° 0 mm 5 mps 747 mmHg 83%
12:00 +9°C° 0 mm 5 mps 747 mmHg 81%
13:00 +10°C° 0 mm 5 mps 747 mmHg 79%
14:00 +10°C° 0 mm 5 mps 747 mmHg 77%
15:00 +10°C° 0.1 mm 5 mps 747 mmHg 77%
16:00 +10°C° 0.1 mm 6 mps 747 mmHg 77%
17:00 +10°C° 0.1 mm 6 mps 747 mmHg 77%
18:00 +10°C° 0 mm 6 mps 748 mmHg 81%
19:00 +9°C° 0 mm 5 mps 748 mmHg 85%
20:00 +8°C° 0 mm 5 mps 749 mmHg 89%
21:00 +8°C° 0 mm 5 mps 749 mmHg 89%
22:00 +8°C° 0 mm 5 mps 749 mmHg 89%
23:00 +8°C° 0 mm 5 mps 749 mmHg 90%

17 April, Saturday

Time Temperature Precipitation Wind Pressure Humidity
00:00 +8°C° 0 mm 5 mps 750 mmHg 88%
01:00 +7°C° 0 mm 5 mps 750 mmHg 87%
02:00 +7°C° 0 mm 5 mps 750 mmHg 86%
03:00 +6°C° 0 mm 5 mps 750 mmHg 86%
04:00 +6°C° 0 mm 5 mps 751 mmHg 86%
05:00 +5°C° 0 mm 5 mps 751 mmHg 86%
06:00 +6°C° 0 mm 5 mps 751 mmHg 83%
07:00 +6°C° 0 mm 5 mps 751 mmHg 80%
08:00 +7°C° 0 mm 5 mps 752 mmHg 77%
09:00 +8°C° 0 mm 5 mps 752 mmHg 74%
10:00 +8°C° 0 mm 5 mps 752 mmHg 71%
11:00 +9°C° 0 mm 5 mps 753 mmHg 68%
12:00 +12°C° 0 mm 5 mps 753 mmHg 63%
13:00 +13°C° 0 mm 5 mps 753 mmHg 57%
14:00 +14°C° 0 mm 6 mps 753 mmHg 52%
15:00 +14°C° 0 mm 5 mps 753 mmHg 52%
16:00 +14°C° 0 mm 5 mps 753 mmHg 52%
17:00 +13°C° 0 mm 5 mps 753 mmHg 52%
18:00 +12°C° 0 mm 4 mps 754 mmHg 56%
19:00 +10°C° 0 mm 4 mps 754 mmHg 59%
20:00 +9°C° 0 mm 3 mps 754 mmHg 62%
21:00 +8°C° 0 mm 3 mps 755 mmHg 65%
22:00 +7°C° 0 mm 3 mps 755 mmHg 67%
23:00 +7°C° 0 mm 3 mps 755 mmHg 69%

18 April, Sunday

Time Temperature Precipitation Wind Pressure Humidity
00:00 +5°C° 0 mm 3 mps 755 mmHg 72%
01:00 +4°C° 0 mm 3 mps 755 mmHg 74%
02:00 +4°C° 0 mm 3 mps 755 mmHg 77%
03:00 +3°C° 0 mm 3 mps 756 mmHg 78%
04:00 +3°C° 0 mm 3 mps 756 mmHg 80%
05:00 +2°C° 0 mm 3 mps 756 mmHg 81%
06:00 +4°C° 0 mm 3 mps 756 mmHg 75%
07:00 +5°C° 0 mm 4 mps 756 mmHg 68%
08:00 +6°C° 0 mm 4 mps 756 mmHg 62%
09:00 +8°C° 0 mm 4 mps 756 mmHg 56%
10:00 +11°C° 0 mm 4 mps 756 mmHg 51%
11:00 +12°C° 0 mm 4 mps 756 mmHg 46%
12:00 +13°C° 0 mm 4 mps 756 mmHg 44%
13:00 +13°C° 0 mm 4 mps 756 mmHg 43%
14:00 +14°C° 0 mm 4 mps 756 mmHg 41%
15:00 +14°C° 0 mm 4 mps 756 mmHg 44%
16:00 +14°C° 0 mm 4 mps 756 mmHg 46%
17:00 +13°C° 0 mm 3 mps 756 mmHg 49%
18:00 +12°C° 0 mm 3 mps 756 mmHg 56%
19:00 +10°C° 0 mm 3 mps 756 mmHg 63%
20:00 +8°C° 0 mm 2 mps 756 mmHg 70%
21:00 +8°C° 0 mm 2 mps 756 mmHg 71%
22:00 +8°C° 0 mm 2 mps 756 mmHg 72%
23:00 +8°C° 0 mm 2 mps 757 mmHg 72%
Show more